This demonstration page uses our WeatherBlox Daily Observations layout. Learn more.

40.92945, -100.16068

Hourly Observations for December 10, 2015

Temp ( °F °C ) Dew Point ( °F °C ) Humidity (%) Winds ( mph kmh ) Pressure ( in mb ) Visibility ( mi km ) Precip ( " mm )
12:15 am 00:15 Clear 54 12 32 0 44 44 W 10 17 29.5 999 10 16.09344 0 0
12:35 am 00:35 Clear 55 13 32 0 41 41 W 9 15 29.5 999 10 16.09344 0 0
12:55 am 00:55 Clear 55 13 32 0 41 41 W 10 17 29.5 999 10 16.09344 0 0
1:15 am 01:15 Clear 55 13 32 0 41 41 W 10 17 29.5 999 10 16.09344 0 0
1:35 am 01:35 Clear 57 14 30 -1 36 36 WNW 14 22 29.5 999 10 16.09344 0 0
1:55 am 01:55 Clear 59 15 30 -1 34 34 W 12 19 29.5 999 10 16.09344 0 0
2:15 am 02:15 Mostly Cloudy 61 16 28 -2 29 29 WNW 17 28 29.5 999 10 16.09344 0 0
2:35 am 02:35 Mostly Cloudy 63 17 28 -2 27 27 WNW 18 30 29.5 999 10 16.09344 0 0
2:55 am 02:55 Clear 63 17 28 -2 27 27 WNW 25 41 29.5 999 10 16.09344 0 0
3:15 am 03:15 Clear 63 17 30 -1 30 30 WNW 30 48 29.5 999 10 16.09344 0 0
3:35 am 03:35 Clear 63 17 30 -1 30 30 WNW 35 56 29.5 999 10 16.09344 0 0
3:55 am 03:55 Clear 63 17 30 -1 30 30 WNW 40 65 29.53 1000 10 16.09344 0 0
4:15 am 04:15 Clear 61 16 30 -1 31 31 WNW 33 54 29.59 1002 10 16.09344 0 0
4:35 am 04:35 Clear 59 15 32 0 36 36 WNW 32 52 29.59 1002 10 16.09344 0 0
4:55 am 04:55 Clear 57 14 32 0 39 39 WNW 26 43 29.59 1002 10 16.09344 0 0
5:15 am 05:15 Clear 57 14 32 0 39 39 NW 32 52 29.62 1003 10 16.09344 0 0
5:35 am 05:35 Clear 54 12 32 0 44 44 NW 20 31 29.68 1005 10 16.09344 0 0
5:55 am 05:55 Clear 50 10 32 0 50 50 NW 17 28 29.71 1006 10 16.09344 0 0
6:15 am 06:15 Clear 48 9 32 0 54 54 NW 14 22 29.71 1006 10 16.09344 0 0
6:35 am 06:35 Clear 46 8 32 0 57 57 NW 12 19 29.71 1006 10 16.09344 0 0
6:55 am 06:55 Clear 45 7 32 0 61 61 WNW 10 17 29.71 1006 10 16.09344 0 0
7:15 am 07:15 Clear 43 6 32 0 66 66 WNW 10 17 29.77 1008 10 16.09344 0 0
7:35 am 07:35 Clear 39 4 32 0 75 75 WNW 10 17 29.8 1009 10 16.09344 0 0
7:55 am 07:55 Sunny 39 4 32 0 75 75 WNW 9 15 29.83 1010 10 16.09344 0 0
8:15 am 08:15 Sunny 39 4 32 0 75 75 WNW 13 20 29.83 1010 10 16.09344 0 0
8:35 am 08:35 Sunny 41 5 34 1 76 76 WNW 13 20 29.8 1009 10 16.09344 0 0
8:55 am 08:55 Sunny 41 5 34 1 76 76 WNW 10 17 29.8 1009 10 16.09344 0 0
9:15 am 09:15 Sunny 43 6 34 1 71 71 WNW 13 20 29.8 1009 10 16.09344 0 0
9:35 am 09:35 Sunny 46 8 34 1 62 62 NW 13 20 29.77 1008 10 16.09344 0 0
9:55 am 09:55 Sunny 48 9 34 1 58 58 WNW 15 24 29.77 1008 10 16.09344 0 0
10:15 am 10:15 Sunny 48 9 34 1 58 58 WNW 17 28 29.77 1008 10 16.09344 0 0
10:35 am 10:35 Sunny 50 10 34 1 54 54 WNW 18 30 29.77 1008 10 16.09344 0 0
10:55 am 10:55 Sunny 52 11 32 0 47 47 NW 13 20 29.8 1009 10 16.09344 0 0
11:15 am 11:15 Sunny 54 12 30 -1 41 41 WNW 15 24 29.74 1007 10 16.09344 0 0
11:35 am 11:35 Sunny 55 13 28 -2 36 36 NW 18 30 29.74 1007 10 16.09344 0 0
11:55 am 11:55 Sunny 55 13 28 -2 36 36 WNW 22 35 29.71 1006 10 16.09344 0 0
12:15 pm 12:15 Sunny 55 13 28 -2 36 36 NW 15 24 29.71 1006 10 16.09344 0 0
12:35 pm 12:35 Sunny 57 14 25 -4 29 29 NNW 16 26 29.68 1005 10 16.09344 0 0
12:55 pm 12:55 Sunny 57 14 27 -3 31 31 WNW 10 17 29.65 1004 10 16.09344 0 0
1:15 pm 13:15 Sunny 59 15 27 -3 29 29 WNW 16 26 29.65 1004 10 16.09344 0 0
1:35 pm 13:35 Sunny 59 15 25 -4 27 27 NW 13 20 29.65 1004 10 16.09344 0 0
1:55 pm 13:55 Sunny 59 15 23 -5 25 25 NW 15 24 29.65 1004 10 16.09344 0 0
2:15 pm 14:15 Sunny 59 15 21 -6 23 23 WNW 13 20 29.65 1004 10 16.09344 0 0
2:35 pm 14:35 Sunny 59 15 19 -7 21 21 WNW 14 22 29.65 1004 10 16.09344 0 0
2:55 pm 14:55 Sunny 59 15 21 -6 23 23 WNW 16 26 29.65 1004 10 16.09344 0 0
3:15 pm 15:15 Sunny 59 15 21 -6 23 23 WNW 7 11 29.65 1004 10 16.09344 0 0
3:35 pm 15:35 Sunny 55 13 21 -6 26 26 WNW 8 13 29.68 1005 10 16.09344 0 0
3:55 pm 15:55 Sunny 54 12 23 -5 30 30 WNW 5 7 29.68 1005 10 16.09344 0 0
4:15 pm 16:15 Sunny 54 12 25 -4 33 33 WNW 3 6 29.68 1005 10 16.09344 0 0
4:35 pm 16:35 Sunny 52 11 23 -5 32 32 WSW 3 6 29.68 1005 10 16.09344 0 0
4:55 pm 16:55 Sunny 50 10 23 -5 35 35 SW 5 7 29.71 1006 10 16.09344 0 0
5:15 pm 17:15 Clear 48 9 25 -4 40 40 S 6 9 29.71 1006 10 16.09344 0 0
5:35 pm 17:35 Clear 48 9 25 -4 40 40 S 5 7 29.71 1006 7 11.265408 0 0
5:55 pm 17:55 Clear 45 7 25 -4 46 46 S 6 9 29.71 1006 10 16.09344 0 0
6:15 pm 18:15 Clear 46 8 25 -4 43 43 SSE 6 9 29.71 1006 10 16.09344 0 0
6:35 pm 18:35 Clear 43 6 27 -3 53 53 S 6 9 29.74 1007 10 16.09344 0 0
6:55 pm 18:55 Clear 45 7 27 -3 49 49 S 5 7 29.68 1005 10 16.09344 0 0
7:15 pm 19:15 Clear 43 6 27 -3 53 53 S 6 9 29.71 1006 10 16.09344 0 0
7:35 pm 19:35 Clear 43 6 28 -2 57 57 SSE 6 9 29.71 1006 10 16.09344 0 0
7:55 pm 19:55 Clear 43 6 27 -3 53 53 S 8 13 29.71 1006 10 16.09344 0 0
8:15 pm 20:15 Clear 41 5 27 -3 57 57 S 5 7 29.71 1006 10 16.09344 0 0
8:35 pm 20:35 Clear 43 6 27 -3 53 53 S 9 15 29.71 1006 10 16.09344 0 0
8:55 pm 20:55 Clear 45 7 25 -4 46 46 S 9 15 29.65 1004 10 16.09344 0 0
9:15 pm 21:15 Clear 43 6 27 -3 53 53 S 9 15 29.68 1005 10 16.09344 0 0
9:35 pm 21:35 Clear 41 5 27 -3 57 57 SSE 6 9 29.68 1005 10 16.09344 0 0
9:55 pm 21:55 Clear 45 7 27 -3 49 49 SE 5 7 29.62 1003 10 16.09344 0 0
10:15 pm 22:15 Clear 45 7 27 -3 49 49 SE 8 13 29.62 1003 10 16.09344 0 0
10:35 pm 22:35 Clear 46 8 27 -3 46 46 SE 8 13 29.59 1002 10 16.09344 0 0
10:55 pm 22:55 Clear 43 6 27 -3 53 53 SE 8 13 29.59 1002 10 16.09344 0 0
11:15 pm 23:15 Clear 43 6 28 -2 57 57 SE 8 13 29.59 1002 10 16.09344 0 0
11:35 pm 23:35 Clear 41 5 28 -2 61 61 SE 6 9 29.62 1003 10 16.09344 0 0
11:55 pm 23:55 Clear 43 6 28 -2 57 57 SSE 12 19 29.56 1001 10 16.09344 0 0

Powered by AerisWeather